FW4096 Weather Reports


Display with metric or nautical units.
time (UTC)temp
F
wind
direction
speed
MPH
gust
MPH
rain 1hr
in
rain 24hr
in
rain mn
in
humidity
%
barometer
mb
20260906043004 52 356 11.0 20.0 0.00 0.00 0.00 85 1006.6
20260906042504 51 356 10.0 13.0 0.00 0.00 0.00 85 1006.4
20260906042004 51 356 10.0 16.0 0.00 0.00 0.00 85 1006.3
20260906041503 51 358 10.0 16.0 0.00 0.00 0.00 85 1006.3
20260906041004 51 359 9.0 14.0 0.00 0.00 0.00 85 1006.3
20260906040503 51 359 9.0 19.0 0.00 0.00 0.00 85 1006.3
20260906040004 51 359 11.0 19.0 0.00 0.00 0.00 85 1006.2
20260906035607 51 359 12.0 18.0 0.00 0.00 0.00 84 1006.2
20260906035003 52 357 11.0 16.0 0.00 0.00 0.00 84 1006.1
20260906034504 52 357 12.0 18.0 0.00 0.00 0.00 84 1006.0
20260906034006 52 358 12.0 18.0 0.00 0.00 0.00 84 1005.9
20260906033503 52 1 10.0 18.0 0.00 0.00 0.00 84 1005.9
20260906033106 52 3 9.0 14.0 0.00 0.00 0.00 85 1005.8
20260906032503 52 360 9.0 14.0 0.00 0.00 0.00 84 1005.7
20260906032003 52 357 10.0 16.0 0.00 0.00 0.00 84 1005.7
20260906031503 52 358 12.0 20.0 0.00 0.00 0.00 84 1005.5
20260906031106 52 360 12.0 20.0 0.00 0.00 0.00 84 1005.6
20260906030503 52 1 10.0 19.0 0.00 0.00 0.00 84 1005.4
20260906030004 52 1 9.0 15.0 0.00 0.00 0.00 84 1005.2
20260906025503 52 2 10.0 17.0 0.00 0.00 0.00 84 1005.2
20260906025107 52 359 11.0 20.0 0.00 0.00 0.00 84 1005.2
20260906024503 53 355 10.0 20.0 0.00 0.00 0.00 84 1005.0
20260906024003 53 355 10.0 16.0 0.00 0.00 0.00 84 1005.0
20260906023606 53 358 11.0 16.0 0.00 0.00 0.00 84 1004.9
20260906023003 53 1 12.0 18.0 0.00 0.00 0.00 84 1004.9
20260906022503 54 359 12.0 18.0 0.00 0.00 0.00 85 1004.8
20260906022003 54 359 10.0 17.0 0.00 0.00 0.00 85 1004.8
20260906021503 54 1 10.0 15.0 0.00 0.00 0.00 84 1004.7
20260906021003 54 359 11.0 16.0 0.00 0.00 0.00 84 1004.6
20260906020607 54 357 11.0 17.0 0.00 0.00 0.00 84 1004.6
20260906020004 54 354 12.0 17.0 0.00 0.00 0.00 83 1004.4
20260906015506 54 352 11.0 17.0 0.00 0.00 0.00 83 1004.4
20260906015004 55 355 10.0 15.0 0.00 0.00 0.00 85 1004.3
20260906014504 55 357 11.0 17.0 0.00 0.00 0.00 85 1004.2
20260906014004 55 356 11.0 17.0 0.00 0.00 0.00 85 1004.1
20260906013504 56 357 9.0 17.0 0.00 0.00 0.00 86 1004.1
20260906013107 56 357 10.0 17.0 0.00 0.00 0.00 86 1003.9
20260906012504 56 354 12.0 17.0 0.00 0.00 0.00 86 1003.9
20260906012004 56 355 12.0 18.0 0.00 0.00 0.00 86 1003.8
20260906011504 57 353 12.0 18.0 0.00 0.00 0.00 86 1003.7
20260906011004 57 352 10.0 16.0 0.00 0.00 0.00 87 1003.5
20260906010607 57 355 9.0 15.0 0.00 0.00 0.00 87 1003.5
20260906010004 57 357 8.0 13.0 0.00 0.00 0.00 87 1003.4
20260906005505 57 357 8.0 13.0 0.00 0.00 0.00 87 1003.4
20260906005004 57 357 7.0 10.0 0.00 0.00 0.00 87 1003.3
20260906004607 57 360 7.0 10.0 0.00 0.00 0.00 87 1003.2
20260906004004 57 1 5.0 9.0 0.00 0.00 0.00 87 1003.1
20260906003503 57 360 5.0 8.0 0.00 0.00 0.00 87 1003.1
20260906003004 56 1 4.0 8.0 0.00 0.00 0.00 86 1002.9
20260906002503 57 3 4.0 8.0 0.00 0.00 0.00 86 1002.9
20260906002003 57 5 4.0 8.0 0.00 0.00 0.00 86 1003.0
20260906001506 57 8 4.0 7.0 0.00 0.00 0.00 85 1002.9
20260906001004 57 10 4.0 7.0 0.00 0.00 0.00 85 1002.8
20260906000503 57 9 4.0 7.0 0.00 0.00 0.00 85 1002.8
20260906000003 57 8 4.0 8.0 0.00 0.00 0.00 85 1002.8
20260905235503 57 9 4.0 8.0 0.00 0.00 0.00 85 1002.7
20260905235003 57 11 4.0 7.0 0.00 0.00 0.00 85 1002.6
20260905234503 57 11 4.0 7.0 0.00 0.00 0.00 85 1002.5
20260905234003 57 9 4.0 8.0 0.00 0.00 0.00 85 1002.6
20260905233503 58 12 4.0 8.0 0.00 0.00 0.00 85 1002.5
20260905233003 58 13 3.0 6.0 0.00 0.00 0.00 85 1002.5
20260905232503 58 8 4.0 8.0 0.00 0.00 0.00 85 1002.4
20260905232003 58 7 4.0 8.0 0.00 0.00 0.00 85 1002.4
20260905231503 58 4 5.0 12.0 0.00 0.00 0.00 85 1002.3
20260905231003 59 2 7.0 12.0 0.00 0.00 0.00 85 1002.3
20260905230003 59 356 9.0 14.0 0.00 0.00 0.00 85 1002.2
20260905225503 59 352 10.0 14.0 0.00 0.00 0.00 85 1002.2
20260905225003 59 349 9.0 16.0 0.00 0.00 0.00 84 1002.1
20260905224503 60 349 9.0 16.0 0.00 0.00 0.00 84 1002.2
20260905224003 60 347 10.0 13.0 0.00 0.00 0.00 84 1002.1
20260905223606 60 341 10.0 15.0 0.00 0.00 0.00 85 1002.1
20260905223003 60 339 10.0 15.0 0.00 0.00 0.00 84 1002.1
20260905222505 60 338 10.0 15.0 0.00 0.00 0.00 85 1002.1
20260905222003 60 334 10.0 15.0 0.00 0.00 0.00 84 1002.1
20260905221503 60 335 11.0 15.0 0.00 0.00 0.00 84 1002.1
20260905221004 60 335 10.0 15.0 0.00 0.00 0.00 84 1001.9
20260905220504 60 333 10.0 16.0 0.00 0.00 0.00 84 1001.9
20260905220004 60 332 11.0 16.0 0.00 0.00 0.00 84 1001.8
20260905215607 60 330 11.0 17.0 0.00 0.00 0.00 84 1001.9
20260905215004 60 329 12.0 17.0 0.00 0.00 0.00 84 1001.8
20260905214504 60 328 12.0 17.0 0.00 0.00 0.00 84 1001.7
20260905214004 60 329 12.0 17.0 0.00 0.00 0.00 83 1001.7
20260905213504 60 331 12.0 17.0 0.00 0.00 0.00 83 1001.8
20260905213004 60 331 12.0 19.0 0.00 0.00 0.00 83 1001.8
20260905212504 60 329 12.0 19.0 0.00 0.00 0.00 83 1001.8
20260905212004 60 329 12.0 18.0 0.00 0.00 0.00 83 1001.7
20260905211607 60 329 11.0 15.0 0.00 0.00 0.00 83 1001.7
20260905211004 60 329 10.0 14.0 0.00 0.00 0.00 83 1001.5
20260905210504 60 330 11.0 17.0 0.00 0.00 0.00 82 1001.6
20260905210004 60 330 11.0 17.0 0.00 0.00 0.00 82 1001.6
20260905205504 60 330 10.0 18.0 0.00 0.00 0.00 82 1001.5
20260905205107 60 330 10.0 18.0 0.00 0.00 0.00 82 1001.5
20260905204504 60 329 11.0 17.0 0.00 0.00 0.00 82 1001.4
20260905204006 60 330 11.0 18.0 0.00 0.00 0.00 82 1001.4
20260905203504 60 330 12.0 18.0 0.00 0.00 0.00 82 1001.4
20260905203004 60 328 12.0 19.0 0.00 0.00 0.00 81 1001.5
20260905202504 60 329 13.0 19.0 0.00 0.00 0.00 81 1001.5
20260905202004 60 331 12.0 18.0 0.00 0.00 0.00 82 1001.4
20260905201607 60 330 12.0 18.0 0.00 0.00 0.00 82 1001.4
20260905201004 59 330 11.0 16.0 0.00 0.00 0.00 82 1001.4
20260905200503 59 330 11.0 16.0 0.00 0.00 0.00 82 1001.3
20260905200003 60 330 12.0 19.0 0.00 0.00 0.00 82 1001.3
20260905195503 60 328 13.0 20.0 0.00 0.00 0.00 82 1001.3
20260905195004 60 327 12.0 20.0 0.00 0.00 0.00 82 1001.2
20260905194503 60 328 11.0 17.0 0.00 0.00 0.00 82 1001.2
20260905194003 60 331 12.0 18.0 0.00 0.00 0.00 81 1001.1
20260905193503 59 331 12.0 18.0 0.00 0.00 0.00 81 1001.1
20260905193003 59 332 12.0 17.0 0.00 0.00 0.00 81 1001.1
20260905192503 60 331 12.0 19.0 0.00 0.00 0.00 83 1001.1
20260905192003 60 330 12.0 19.0 0.00 0.00 0.00 83 1001.0
20260905191504 60 329 12.0 19.0 0.00 0.00 0.00 83 1001.0
20260905191003 60 330 12.0 19.0 0.00 0.00 0.00 83 1001.0
20260905190606 60 330 11.0 19.0 0.00 0.00 0.00 83 1001.0
20260905190005 60 330 11.0 19.0 0.00 0.00 0.00 83 1001.0
20260905185503 60 330 12.0 19.0 0.00 0.00 0.00 83 1001.0
20260905185004 60 330 11.0 17.0 0.00 0.00 0.00 83 1000.9
20260905184503 60 329 11.0 16.0 0.00 0.00 0.00 83 1000.9
20260905184106 60 329 10.0 16.0 0.00 0.00 0.00 83 1000.9
20260905183503 60 331 11.0 18.0 0.00 0.00 0.00 83 1000.9
20260905183003 60 332 13.0 18.0 0.00 0.00 0.00 82 1000.9
20260905182503 60 331 13.0 19.0 0.00 0.00 0.00 82 1000.8
20260905182003 60 329 12.0 19.0 0.00 0.00 0.00 82 1000.8
20260905181503 60 329 12.0 18.0 0.00 0.00 0.00 81 1000.8
20260905181003 60 329 12.0 18.0 0.00 0.00 0.00 81 1000.7
20260905180504 60 329 12.0 19.0 0.00 0.00 0.00 80 1000.7
20260905180004 60 331 12.0 19.0 0.00 0.00 0.00 80 1000.6
20260905175607 60 331 12.0 18.0 0.00 0.00 0.00 81 1000.6
20260905175004 60 329 11.0 17.0 0.00 0.00 0.00 79 1000.5
20260905174504 60 328 11.0 18.0 0.00 0.00 0.00 78 1000.5
20260905174003 60 328 12.0 18.0 0.00 0.00 0.00 78 1000.4
20260905173503 60 327 11.0 17.0 0.00 0.00 0.00 78 1000.4
20260905173004 60 324 10.0 15.0 0.00 0.00 0.00 80 1000.4
20260905172504 60 324 9.0 15.0 0.00 0.00 0.00 81 1000.4
20260905172004 60 326 9.0 17.0 0.00 0.00 0.00 80 1000.3
20260905171506 60 329 10.0 19.0 0.00 0.00 0.00 80 1000.2
20260905171004 60 330 10.0 19.0 0.00 0.00 0.00 80 1000.2
20260905170504 60 329 10.0 16.0 0.00 0.00 0.00 80 1000.1
20260905170004 60 328 10.0 15.0 0.00 0.00 0.00 79 1000.0
20260905165504 60 329 9.0 17.0 0.00 0.00 0.00 80 999.9
20260905165004 60 328 9.0 17.0 0.00 0.00 0.00 80 999.9
20260905164503 60 323 9.0 18.0 0.00 0.00 0.00 79 999.9
20260905164107 60 321 9.0 18.0 0.00 0.00 0.00 79 999.8
20260905163503 60 325 8.0 16.0 0.00 0.00 0.00 79 999.9
20260905163107 60 327 9.0 16.0 0.00 0.00 0.00 78 999.8
20260905162607 60 327 8.0 16.0 0.00 0.00 0.00 80 999.7
20260905162107 61 324 8.0 15.0 0.00 0.00 0.00 79 999.7
20260905161504 61 326 8.0 13.0 0.00 0.00 0.00 78 999.7
20260905161003 61 326 7.0 13.0 0.00 0.00 0.00 78 999.6
20260905160503 61 323 7.0 13.0 0.00 0.00 0.00 79 999.6
20260905160004 62 325 8.0 13.0 0.00 0.00 0.00 78 999.5
20260905155504 62 329 8.0 13.0 0.00 0.00 0.00 77 999.5
20260905155003 62 329 8.0 13.0 0.00 0.00 0.00 77 999.5
20260905154504 62 329 9.0 13.0 0.00 0.00 0.00 76 999.4
20260905154003 62 330 10.0 15.0 0.00 0.00 0.00 77 999.3
20260905153503 62 329 11.0 15.0 0.00 0.00 0.00 76 999.3
20260905153106 62 329 10.0 15.0 0.00 0.00 0.00 77 999.3
20260905152503 62 330 9.0 14.0 0.00 0.00 0.00 77 999.3
20260905152003 62 327 9.0 14.0 0.00 0.00 0.00 77 999.4
20260905151503 63 327 9.0 15.0 0.00 0.00 0.00 75 999.3
20260905151003 63 330 9.0 15.0 0.00 0.00 0.00 76 999.3
20260905150503 63 330 10.0 14.0 0.00 0.00 0.00 76 999.3
20260905150003 63 329 10.0 15.0 0.00 0.00 0.00 75 999.3
20260905145503 63 329 10.0 16.0 0.00 0.00 0.00 76 999.2
20260905145106 63 329 10.0 16.0 0.00 0.00 0.00 73 999.2
20260905144503 64 330 9.0 15.0 0.00 0.00 0.00 72 999.1
20260905144003 64 329 9.0 15.0 0.00 0.00 0.00 72 999.0
20260905143503 64 327 8.0 13.0 0.00 0.00 0.00 73 999.0
20260905143003 64 321 8.0 12.0 0.00 0.00 0.00 73 999.0
20260905142503 64 317 7.0 13.0 0.00 0.00 0.00 71 999.0
20260905142106 64 325 8.0 13.0 0.00 0.00 0.00 71 998.9
20260905141503 65 328 8.0 13.0 0.00 0.00 0.00 73 998.9
20260905141004 65 324 8.0 13.0 0.00 0.00 0.00 73 998.8
20260905140504 65 325 8.0 13.0 0.00 0.00 0.00 73 998.7
20260905140004 65 327 9.0 14.0 0.00 0.00 0.00 72 998.7
20260905135504 65 329 9.0 14.0 0.00 0.00 0.00 72 998.7
20260905135107 66 328 8.0 14.0 0.00 0.00 0.00 72 998.7
20260905134504 66 326 6.0 12.0 0.00 0.00 0.00 71 998.6
20260905134004 66 329 7.0 13.0 0.00 0.00 0.00 71 998.6
20260905133504 66 329 8.0 13.0 0.00 0.00 0.00 71 998.6
20260905133004 66 327 8.0 13.0 0.00 0.00 0.00 71 998.4
20260905132504 66 329 8.0 13.0 0.00 0.00 0.00 70 998.5
20260905132004 66 333 8.0 12.0 0.00 0.00 0.00 72 998.4
20260905131504 66 335 8.0 15.0 0.00 0.00 0.00 72 998.4
20260905131004 66 335 9.0 15.0 0.00 0.00 0.00 73 998.4
20260905130607 66 333 9.0 14.0 0.00 0.00 0.00 73 998.3
20260905130004 66 332 9.0 14.0 0.00 0.00 0.00 73 998.3
20260905125504 66 333 9.0 14.0 0.00 0.00 0.00 73 998.3
20260905125004 66 332 9.0 14.0 0.00 0.00 0.00 74 998.4
20260905124504 66 335 9.0 13.0 0.00 0.00 0.00 73 998.2
20260905124004 66 338 9.0 13.0 0.00 0.00 0.00 74 998.3
20260905123607 66 336 9.0 13.0 0.00 0.00 0.00 74 998.1
20260905123004 66 332 9.0 12.0 0.00 0.00 0.00 75 998.3
20260905122503 65 331 8.0 12.0 0.00 0.00 0.00 74 998.2
20260905122107 66 331 9.0 13.0 0.00 0.00 0.00 73 998.3
20260905121504 67 335 9.0 13.0 0.00 0.00 0.00 72 998.1
20260905121003 66 336 8.0 12.0 0.00 0.00 0.00 74 998.1
20260905120503 66 333 9.0 13.0 0.00 0.00 0.00 73 997.8
20260905120004 66 337 9.0 13.0 0.00 0.00 0.00 74 997.8
20260905115504 66 338 9.0 13.0 0.00 0.00 0.00 74 997.8
20260905115107 66 334 9.0 13.0 0.00 0.00 0.00 75 997.8
20260905114503 65 330 7.0 13.0 0.00 0.00 0.00 76 997.7
20260905114003 65 330 7.0 12.0 0.00 0.00 0.00 76 997.7
20260905113503 64 333 8.0 12.0 0.00 0.00 0.00 76 997.7
20260905113003 64 330 7.0 12.0 0.00 0.00 0.00 78 997.8
20260905112606 63 330 7.0 11.0 0.00 0.00 0.00 77 997.7
20260905112003 63 333 7.0 11.0 0.00 0.00 0.00 76 997.6
20260905111606 64 335 6.0 11.0 0.00 0.00 0.00 76 997.5
20260905111003 64 337 7.0 12.0 0.00 0.00 0.00 76 997.4
20260905110503 64 336 7.0 12.0 0.00 0.00 0.00 77 997.4
20260905110003 64 333 7.0 11.0 0.00 0.00 0.00 77 997.3
20260905105606 64 335 7.0 11.0 0.00 0.00 0.00 76 997.3
20260905105107 64 339 6.0 10.0 0.00 0.00 0.00 76 997.2
20260905104503 63 338 6.0 10.0 0.00 0.00 0.00 77 997.1
20260905104003 63 335 7.0 10.0 0.00 0.00 0.00 76 997.1
20260905103503 63 331 6.0 10.0 0.00 0.00 0.00 75 997.0
20260905103003 63 331 6.0 9.0 0.00 0.00 0.00 75 996.9
20260905102503 64 336 7.0 11.0 0.00 0.00 0.00 76 997.0
20260905102003 64 337 8.0 11.0 0.00 0.00 0.00 76 996.9
20260905101504 64 336 8.0 11.0 0.00 0.00 0.00 76 996.8
20260905101004 63 338 6.0 11.0 0.00 0.00 0.00 77 996.8
20260905100505 63 334 5.0 10.0 0.00 0.00 0.00 77 996.6
20260905100106 63 333 6.0 10.0 0.00 0.00 0.00 77 996.8
20260905095504 63 334 7.0 11.0 0.00 0.00 0.00 76 996.7
20260905095004 63 335 7.0 11.0 0.00 0.00 0.00 75 996.7
20260905094504 63 333 7.0 11.0 0.00 0.00 0.00 74 996.6
20260905094004 63 330 8.0 11.0 0.00 0.00 0.00 74 996.6
20260905093504 64 330 9.0 11.0 0.00 0.00 0.00 73 996.4
20260905093004 64 329 8.0 12.0 0.00 0.00 0.00 74 996.4
20260905092504 64 333 7.0 12.0 0.00 0.00 0.00 73 996.2
20260905092107 65 343 6.0 10.0 0.00 0.00 0.00 75 996.3
20260905091504 64 357 4.0 9.0 0.00 0.00 0.00 75 996.2
20260905091004 63 358 4.0 9.0 0.00 0.00 0.00 75 996.2
20260905090607 63 347 5.0 9.0 0.00 0.00 0.00 75 996.2
20260905090004 63 336 7.0 11.0 0.00 0.00 0.00 74 996.1
20260905085503 63 341 6.0 11.0 0.00 0.00 0.00 76 996.1
20260905085004 63 347 6.0 10.0 0.00 0.00 0.00 75 996.0
20260905084504 64 347 6.0 10.0 0.00 0.00 0.00 75 995.9
20260905084107 64 352 5.0 9.0 0.00 0.00 0.00 76 995.7
20260905083503 64 354 5.0 9.0 0.00 0.00 0.00 76 995.7
20260905083003 63 351 5.0 9.0 0.00 0.00 0.00 75 995.7
20260905082503 64 353 5.0 8.0 0.00 0.00 0.00 75 995.8
20260905082107 63 358 6.0 9.0 0.00 0.00 0.00 76 995.8
20260905081503 63 355 6.0 10.0 0.00 0.00 0.00 75 996.0
20260905081003 63 351 6.0 10.0 0.00 0.00 0.00 76 995.8
20260905080606 62 346 6.0 9.0 0.00 0.00 0.00 76 995.9
20260905080003 62 333 4.0 8.0 0.00 0.00 0.00 78 995.7
20260905075606 61 309 3.0 8.0 0.00 0.00 0.00 79 995.8
20260905075003 61 299 2.0 6.0 0.00 0.00 0.00 78 995.8
20260905074503 61 316 2.0 5.0 0.00 0.00 0.00 79 995.7
20260905074003 61 330 2.0 5.0 0.00 0.00 0.00 82 995.7
20260905073503 60 341 1.0 5.0 0.00 0.00 0.00 85 995.7
20260905073003 59 5 2.0 4.0 0.00 0.00 0.00 88 995.6
20260905072503 58 19 1.0 4.0 0.00 0.00 0.00 89 995.6
20260905072003 58 177 0.0 3.0 0.00 0.00 0.00 91 995.6
20260905071503 58 0 0.0 0.0 0.00 0.00 0.00 91 995.6
20260905071003 57 178 0.0 1.0 0.00 0.00 0.00 91 995.5
20260905070607 57 178 0.0 1.0 0.00 0.00 0.00 91 995.4
20260905070003 57 178 0.0 1.0 0.00 0.00 0.00 92 995.3
20260905065505 57 178 0.0 2.0 0.00 0.00 0.00 92 995.3
20260905065003 56 178 0.0 2.0 0.00 0.00 0.00 92 995.3
20260905064503 56 178 0.0 2.0 0.00 0.00 0.00 92 995.3
20260905064106 56 179 1.0 3.0 0.00 0.00 0.00 92 995.2
20260905063503 56 179 1.0 3.0 0.00 0.00 0.00 92 995.1
20260905063003 56 178 0.0 3.0 0.00 0.00 0.00 92 995.2
20260905062503 55 0 0.0 0.0 0.00 0.00 0.00 92 995.1
20260905062004 55 0 0.0 0.0 0.00 0.00 0.00 92 995.1
20260905061504 55 178 0.0 2.0 0.00 0.00 0.00 92 995.0
20260905061004 55 178 1.0 3.0 0.00 0.00 0.00 92 995.0
20260905060504 54 178 2.0 3.0 0.00 0.00 0.00 92 995.0
20260905060004 54 173 2.0 5.0 0.00 0.00 0.00 92 995.1
20260905055504 54 145 2.0 5.0 0.00 0.00 0.00 92 995.0
20260905055004 54 110 1.0 4.0 0.00 0.00 0.00 92 995.0
20260905054504 54 105 0.0 2.0 0.00 0.00 0.00 92 995.0
20260905054004 54 105 1.0 2.0 0.00 0.00 0.00 92 995.0
20260905053504 54 105 1.0 3.0 0.00 0.00 0.00 92 994.9
20260905053004 54 104 1.0 3.0 0.00 0.00 0.00 92 994.9
20260905052504 54 104 0.0 3.0 0.00 0.00 0.00 92 994.9
20260905052004 54 0 0.0 0.0 0.00 0.00 0.00 92 994.9
20260905051504 54 0 0.0 0.0 0.00 0.00 0.00 92 994.9
20260905051004 53 0 0.0 0.0 0.00 0.00 0.00 92 994.9
20260905050504 53 0 0.0 0.0 0.00 0.00 0.00 92 994.9
20260905050004 53 0 0.0 0.0 0.00 0.00 0.00 92 994.9
20260905045504 53 0 0.0 0.0 0.00 0.00 0.00 92 994.8
20260905045004 53 0 0.0 0.0 0.00 0.00 0.00 92 994.9
20260905044504 52 0 0.0 0.0 0.00 0.00 0.00 92 994.9
20260905044004 52 0 0.0 0.0 0.00 0.00 0.00 92 994.9